TimeAEST,TemperatureF,Dew PointF,Humidity,Sea Level PressureIn,VisibilityMPH,Wind Direction,Wind SpeedMPH,Gust SpeedMPH,PrecipitationIn,Events,Conditions,WindDirDegrees,DateUTC
12:00 AM,73,63,64,30.02,,SE,6.9,,,,,130,2013-10-28 14:00:00
12:00 AM,73.4,62.6,69,30.01,6.2,SE,6.9,-,N/A,,Partly Cloudy,130,2013-10-28 14:00:00
12:30 AM,75.2,62.6,65,30.01,6.2,SE,8.1,-,N/A,,Partly Cloudy,130,2013-10-28 14:30:00
1:00 AM,74,63,60,30.01,,South,8.1,,,,,170,2013-10-28 15:00:00
1:00 AM,73.4,62.6,69,29.98,6.2,South,8.1,-,N/A,,Partly Cloudy,170,2013-10-28 15:00:00
1:30 AM,73.4,62.6,69,29.98,6.2,South,8.1,-,N/A,,Partly Cloudy,170,2013-10-28 15:30:00
2:00 AM,73.4,62.6,69,29.98,6.2,SSE,8.1,-,N/A,,Partly Cloudy,160,2013-10-28 16:00:00
2:30 AM,73.4,62.6,69,29.98,6.2,SSE,8.1,-,N/A,,Scattered Clouds,160,2013-10-28 16:30:00
3:00 AM,73,62,61,29.97,,SSE,6.9,,,,,160,2013-10-28 17:00:00
3:00 AM,73.4,62.6,69,29.95,6.2,SSE,6.9,-,N/A,,Scattered Clouds,160,2013-10-28 17:00:00
3:30 AM,73.4,62.6,69,29.98,6.2,SSE,6.9,-,N/A,,Scattered Clouds,150,2013-10-28 17:30:00
4:00 AM,73,62,60,29.98,,South,8.1,,,,,170,2013-10-28 18:00:00
4:00 AM,73.4,62.6,69,29.98,6.2,South,8.1,-,N/A,,Partly Cloudy,170,2013-10-28 18:00:00
4:30 AM,73.4,62.6,69,29.98,6.2,SSE,8.1,-,N/A,,Partly Cloudy,160,2013-10-28 18:30:00
5:00 AM,71.6,62.6,73,29.98,6.2,SSE,6.9,-,N/A,,Partly Cloudy,160,2013-10-28 19:00:00
5:30 AM,71.6,62.6,73,29.98,6.2,South,6.9,-,N/A,,Scattered Clouds,170,2013-10-28 19:30:00
6:00 AM,72,62,62,29.99,19,South,6.9,,,,Partly Cloudy,170,2013-10-28 20:00:00
6:00 AM,73.4,60.8,65,29.98,6.2,South,6.9,-,N/A,,Scattered Clouds,170,2013-10-28 20:00:00
6:30 AM,75.2,62.6,65,30.01,6.2,South,8.1,-,N/A,,Partly Cloudy,170,2013-10-28 20:30:00
7:00 AM,76,61,50,30.02,,South,9.2,,,,,170,2013-10-28 21:00:00
7:00 AM,75.2,60.8,61,30.01,6.2,South,9.2,-,N/A,,Partly Cloudy,170,2013-10-28 21:00:00
7:30 AM,78.8,62.6,57,30.01,6.2,South,8.1,-,N/A,,Partly Cloudy,170,2013-10-28 21:30:00
8:00 AM,78.8,62.6,57,30.04,6.2,SSE,8.1,-,N/A,,Partly Cloudy,160,2013-10-28 22:00:00
8:30 AM,80.6,62.6,54,30.04,6.2,SSE,8.1,-,N/A,,Partly Cloudy,160,2013-10-28 22:30:00
9:00 AM,82,62,42,30.04,19,SSE,10.4,,,,Partly Cloudy,150,2013-10-28 23:00:00
9:00 AM,82.4,62.6,51,30.04,6.2,SSE,10.4,-,N/A,,Partly Cloudy,150,2013-10-28 23:00:00
9:30 AM,84.2,62.6,48,30.04,6.2,ESE,11.5,-,N/A,,Partly Cloudy,110,2013-10-28 23:30:00
10:00 AM,83,61,37,30.03,,ESE,10.4,,,,,110,2013-10-29 00:00:00
10:00 AM,82.4,60.8,48,30.01,6.2,ESE,10.4,-,N/A,,Partly Cloudy,110,2013-10-29 00:00:00
10:30 AM,82.4,59.0,45,30.01,6.2,ESE,11.5,-,N/A,,Partly Cloudy,110,2013-10-29 00:30:00
11:00 AM,84.2,60.8,45,30.01,6.2,ENE,12.7,-,N/A,,Partly Cloudy,70,2013-10-29 01:00:00
11:30 AM,84.2,60.8,45,30.01,6.2,ENE,12.7,-,N/A,,Partly Cloudy,60,2013-10-29 01:30:00
12:00 PM,84,60,34,29.99,19,East,12.7,,,,Partly Cloudy,100,2013-10-29 02:00:00
12:00 PM,84.2,59.0,42,29.98,6.2,East,12.7,-,N/A,,Partly Cloudy,100,2013-10-29 02:00:00
12:30 PM,84.2,60.8,45,29.98,6.2,East,13.8,-,N/A,,Partly Cloudy,100,2013-10-29 02:30:00
1:00 PM,85,62,35,29.97,,ENE,15.0,,,,,70,2013-10-29 03:00:00
1:00 PM,86.0,62.6,45,29.95,6.2,ENE,15.0,-,N/A,,Partly Cloudy,70,2013-10-29 03:00:00
1:30 PM,84.2,60.8,45,29.95,6.2,ENE,16.1,-,N/A,,Partly Cloudy,60,2013-10-29 03:30:00
2:00 PM,84.2,62.6,48,29.92,6.2,ENE,15.0,-,N/A,,Partly Cloudy,60,2013-10-29 04:00:00
2:30 PM,84.2,62.6,48,29.92,6.2,ENE,15.0,-,N/A,,Partly Cloudy,60,2013-10-29 04:30:00
3:00 PM,83,62,40,29.92,19,ENE,15.0,,,,Partly Cloudy,60,2013-10-29 05:00:00
3:00 PM,82.4,62.6,51,29.92,6.2,ENE,15.0,-,N/A,,Partly Cloudy,60,2013-10-29 05:00:00
3:30 PM,82.4,62.6,51,29.92,6.2,ENE,15.0,-,N/A,,Partly Cloudy,60,2013-10-29 05:30:00
4:00 PM,82,63,43,29.92,,ENE,15.0,,,,,60,2013-10-29 06:00:00
4:00 PM,82.4,62.6,51,29.92,6.2,ENE,15.0,-,N/A,,Partly Cloudy,60,2013-10-29 06:00:00
4:30 PM,80.6,64.4,58,29.89,6.2,ENE,12.7,-,N/A,,Partly Cloudy,60,2013-10-29 06:30:00
5:00 PM,80.6,62.6,54,29.92,6.2,ENE,11.5,-,N/A,,Scattered Clouds,70,2013-10-29 07:00:00
5:30 PM,78.8,62.6,57,29.92,6.2,ENE,10.4,-,N/A,,Scattered Clouds,70,2013-10-29 07:30:00
6:00 PM,78.8,64.4,61,29.92,6.2,ENE,10.4,-,N/A,,Scattered Clouds,70,2013-10-29 08:00:00
6:30 PM,78.8,64.4,61,29.92,6.2,ESE,8.1,-,N/A,,Scattered Clouds,110,2013-10-29 08:30:00
7:00 PM,78,64,53,29.94,,SSE,9.2,,,,,150,2013-10-29 09:00:00
7:00 PM,77.0,64.4,65,29.92,6.2,SSE,9.2,-,N/A,,Scattered Clouds,150,2013-10-29 09:00:00
7:30 PM,77.0,64.4,65,29.95,6.2,South,8.1,-,N/A,,Mostly Cloudy,170,2013-10-29 09:30:00
8:00 PM,77.0,64.4,65,29.95,6.2,South,4.6,-,N/A,,Mostly Cloudy,180,2013-10-29 10:00:00
8:30 PM,77.0,64.4,65,29.95,6.2,SSE,4.6,-,N/A,,Scattered Clouds,160,2013-10-29 10:30:00
9:00 PM,76,64,58,29.96,,South,3.5,,,,Overcast,190,2013-10-29 11:00:00
9:00 PM,75.2,64.4,69,29.95,6.2,South,3.5,-,N/A,,Mostly Cloudy,190,2013-10-29 11:00:00
9:30 PM,75.2,64.4,69,29.95,6.2,South,4.6,-,N/A,,Scattered Clouds,170,2013-10-29 11:30:00
10:00 PM,73,64,67,29.98,,SSE,5.8,,,,,160,2013-10-29 12:00:00
10:00 PM,73.4,64.4,73,29.95,6.2,SSE,5.8,-,N/A,,Scattered Clouds,160,2013-10-29 12:00:00
10:30 PM,75.2,64.4,69,29.98,6.2,South,5.8,-,N/A,,Scattered Clouds,190,2013-10-29 12:30:00
11:00 PM,73.4,64.4,73,29.95,6.2,SSE,6.9,-,N/A,,Partly Cloudy,160,2013-10-29 13:00:00
11:30 PM,71.6,64.4,78,29.95,6.2,SSE,8.1,-,N/A,,Partly Cloudy,150,2013-10-29 13:30:00